Terug naar catalogus

STARLINK-37813

ActiefCommunicatieVLEO
NORAD 100289·PAYLOAD·🇺🇸 United States

Gelanceerd Aug 11, 2026 vanaf Cape Canaveral Space Force Station

Loading…

Volgende Passages (komende 24 uur)

TLE

VerouderdSource: Space-Track

Epoch: Sep 8, 2026, 10:43 UTC

1 A0289U 26183T   26251.44665774  .00210979  00000-0  13422-2 0  9990
2 A0289  53.1601 316.5692 0001118 118.9474 241.1659 15.75310827  4410

Volg STARLINK-37813 in realtime met AllMySat

Download on the App Store